This is the latest recevied weather packets stored in our database for station/object K4GDX. If no packets are shown the sender has not sent any weather packets the latest 10 day(s).
| Time | Temp. | Humidity | Pressure | Rain* | Wind** | Luminosity | Snow |
|---|---|---|---|---|---|---|---|
| 1777729529 | 21.11° C | 86% | 1009.9 hPa | 0 mm | - | 30 W/m² | - |
| 1777729228 | 21.11° C | 86% | 1009.3 hPa | 0 mm | - | 33 W/m² | - |
| 1777728926 | 21.11° C | 86% | 1009.3 hPa | 0 mm | - | 26 W/m² | - |
| 1777728631 | 21.11° C | 86% | 1009.6 hPa | 0 mm | - | 33 W/m² | - |
| 1777728326 | 21.11° C | 86% | 1009.9 hPa | 0 mm | - | 35 W/m² | - |
| 1777728025 | 21.11° C | 86% | 1010 hPa | 0 mm | - | 42 W/m² | - |
| 1777727726 | 21.11° C | 86% | 1009.7 hPa | 0 mm | - | 60 W/m² | - |
| 1777727421 | 20.56° C | 86% | 1009.7 hPa | 0 mm | - | 62 W/m² | - |
| 1777727122 | 20.56° C | 86% | 1009.7 hPa | 0 mm | - | 56 W/m² | - |
| 1777726829 | 20.56° C | 86% | 1009.6 hPa | 0 mm | - | 44 W/m² | - |
| 1777726220 | 20.56° C | 86% | 1009.3 hPa | 0 mm | - | 60 W/m² | - |
| 1777725922 | 20.56° C | 86% | 1009.3 hPa | 0 mm | - | 56 W/m² | - |
| 1777725617 | 20.56° C | 86% | 1009.4 hPa | 0 mm | - | 54 W/m² | - |
| 1777725316 | 20.56° C | 86% | 1009.4 hPa | 0 mm | - | 60 W/m² | - |
| 1777724712 | 20.56° C | 86% | 1009.3 hPa | 0 mm | - | 60 W/m² | - |
| 1777724418 | 20.56° C | 86% | 1009.2 hPa | 0 mm | - | 65 W/m² | - |
| 1777724113 | 20.56° C | 86% | 1009.3 hPa | 0 mm | - | 47 W/m² | - |
| 1777723814 | 20.56° C | 86% | 1009.2 hPa | 0 mm | - | 46 W/m² | - |
| 1777723517 | 20.56° C | 86% | 1009.2 hPa | 0 mm | - | 47 W/m² | - |
| 1777723216 | 20.56° C | 86% | 1009.3 hPa | 0 mm | - | 28 W/m² | - |
| 1777722914 | 20.56° C | 87% | 1009.3 hPa | 0 mm | - | 21 W/m² | - |
| 1777722614 | 20.56° C | 87% | 1009.2 hPa | 0 mm | - | 23 W/m² | - |
| 1777722311 | 20.56° C | 87% | 1009.1 hPa | 0 mm | - | 30 W/m² | - |
| 1777722011 | 20° C | 87% | 1009.1 hPa | 0 mm | - | 33 W/m² | - |
| 1777721710 | 20° C | 87% | 1009 hPa | 0 mm | - | 37 W/m² | - |
* Rain latest hour (hover to see other rain measurements)
** Current wind speed in m/s (hover to see current wind gust speed)